Time,TemperatureF,DewpointF,PressureIn,WindDirection,WindDirectionDegrees,WindSpeedMPH,WindSpeedGustMPH,Humidity,HourlyPrecipIn,Conditions,Clouds,dailyrainin,SoftwareType,DateUTC
2014-01-10 00:21:00,32.0,23.0,30.00,South,187,4.0,15.0,69,0.00,,,0.00,,2014-01-10 07:21:00,
2014-01-10 00:42:00,32.0,23.0,30.01,SSW,206,4.0,10.0,69,0.00,,,0.00,,2014-01-10 07:42:00,
2014-01-10 00:52:00,33.0,24.0,29.99,WSW,243,6.0,20.0,68,0.00,,,0.00,,2014-01-10 07:52:00,
2014-01-10 01:21:00,33.0,24.0,29.98,SW,215,6.0,20.0,69,0.00,,,0.00,,2014-01-10 08:21:00,
2014-01-10 01:42:00,33.0,24.0,29.98,SW,226,6.0,12.0,69,0.00,,,0.00,,2014-01-10 08:42:00,
2014-01-10 01:53:00,32.0,25.0,29.97,SW,226,6.0,23.0,76,0.00,,,0.00,,2014-01-10 08:53:00,
2014-01-10 02:21:00,33.0,26.0,29.96,SSW,205,7.0,17.0,76,0.00,,,0.00,,2014-01-10 09:21:00,
2014-01-10 02:53:00,32.0,27.0,29.96,South,181,6.0,17.0,81,0.00,,,0.00,,2014-01-10 09:53:00,
2014-01-10 03:23:00,33.0,28.0,29.96,South,185,7.0,16.0,81,0.00,,,0.00,,2014-01-10 10:23:00,
2014-01-10 03:52:00,33.0,29.0,29.95,SSE,162,4.0,17.0,84,0.00,,,0.00,,2014-01-10 10:52:00,
2014-01-10 04:22:00,34.0,28.0,29.95,South,169,6.0,15.0,78,0.00,,,0.00,,2014-01-10 11:22:00,
2014-01-10 04:54:00,35.0,28.0,29.94,South,175,5.0,12.0,76,0.00,,,0.00,,2014-01-10 11:54:00,
2014-01-10 05:21:00,35.0,28.0,29.93,South,184,5.0,17.0,76,0.00,,,0.00,,2014-01-10 12:21:00,
2014-01-10 05:42:00,36.0,29.0,29.92,South,181,6.0,13.0,76,0.00,,,0.00,,2014-01-10 12:42:00,
2014-01-10 05:52:00,36.0,29.0,29.92,SSW,213,6.0,16.0,76,0.00,,,0.00,,2014-01-10 12:52:00,
2014-01-10 06:21:00,36.0,30.0,29.93,SW,214,7.0,16.0,78,0.00,,,0.00,,2014-01-10 13:21:00,
2014-01-10 06:52:00,36.0,30.0,29.92,WSW,245,3.0,14.0,79,0.00,,,0.00,,2014-01-10 13:52:00,
2014-01-10 07:22:00,36.0,30.0,29.93,WSW,254,7.0,17.0,80,0.00,,,0.00,,2014-01-10 14:22:00,
2014-01-10 07:52:00,35.0,30.0,29.94,SW,227,8.0,16.0,81,0.00,,,0.00,,2014-01-10 14:52:00,
2014-01-10 08:11:00,35.0,29.0,29.93,West,263,10.0,17.0,80,0.00,,,0.00,,2014-01-10 15:11:00,
2014-01-10 08:21:00,35.0,29.0,29.93,West,263,10.0,17.0,80,0.00,,,0.00,,2014-01-10 15:21:00,
2014-01-10 08:53:00,34.0,29.0,29.96,SW,220,6.0,17.0,81,0.00,,,0.00,,2014-01-10 15:53:00,
2014-01-10 09:23:00,35.0,29.0,29.96,WSW,253,7.0,16.0,80,0.00,,,0.00,,2014-01-10 16:23:00,
2014-01-10 09:52:00,35.0,29.0,29.97,WSW,247,5.0,18.0,79,0.00,,,0.00,,2014-01-10 16:52:00,
2014-01-10 10:22:00,37.0,30.0,29.98,SW,232,7.0,14.0,77,0.00,,,0.00,,2014-01-10 17:22:00,
2014-01-10 10:42:00,37.0,30.0,29.98,SW,229,5.0,12.0,77,0.00,,,0.00,,2014-01-10 17:42:00,
2014-01-10 10:53:00,38.0,31.0,29.98,WSW,242,5.0,18.0,76,0.00,,,0.00,,2014-01-10 17:53:00,
2014-01-10 11:21:00,39.0,31.0,30.00,WSW,247,3.0,13.0,74,0.00,,,0.00,,2014-01-10 18:21:00,
2014-01-10 11:42:00,39.0,31.0,29.99,WSW,248,3.0,13.0,74,0.00,,,0.00,,2014-01-10 18:42:00,
2014-01-10 11:52:00,39.0,31.0,29.99,WSW,243,7.0,18.0,73,0.00,,,0.00,,2014-01-10 18:52:00,
2014-01-10 12:21:00,42.0,32.0,29.96,WSW,251,7.0,20.0,68,0.00,,,0.00,,2014-01-10 19:21:00,
2014-01-10 12:52:00,42.0,33.0,29.95,WSW,244,9.0,22.0,71,0.00,,,0.00,,2014-01-10 19:52:00,
2014-01-10 13:22:00,41.0,32.0,29.97,WSW,241,14.0,22.0,71,0.00,,,0.00,,2014-01-10 20:22:00,
2014-01-10 13:42:00,42.0,33.0,29.96,SSW,212,12.0,20.0,70,0.00,,,0.00,,2014-01-10 20:42:00,
2014-01-10 13:52:00,41.0,32.0,29.97,WSW,240,10.0,26.0,70,0.00,,,0.00,,2014-01-10 20:52:00,
2014-01-10 14:21:00,42.0,32.0,29.95,WSW,248,11.0,21.0,68,0.00,,,0.00,,2014-01-10 21:21:00,
2014-01-10 14:53:00,43.0,32.0,29.96,WSW,250,12.0,22.0,66,0.00,,,0.00,,2014-01-10 21:53:00,
2014-01-10 15:22:00,43.0,32.0,29.96,WSW,243,10.0,20.0,65,0.00,,,0.00,,2014-01-10 22:22:00,
2014-01-10 15:53:00,42.0,32.0,29.97,SW,214,9.0,21.0,67,0.00,,,0.00,,2014-01-10 22:53:00,
2014-01-10 16:22:00,41.0,31.0,29.97,WSW,239,8.0,21.0,68,0.00,,,0.00,,2014-01-10 23:22:00,
2014-01-10 16:42:00,41.0,31.0,29.99,SW,218,10.0,17.0,67,0.00,,,0.00,,2014-01-10 23:42:00,
2014-01-10 16:52:00,41.0,31.0,29.99,SW,218,10.0,17.0,67,0.00,,,0.00,,2014-01-10 23:52:00,
2014-01-10 17:02:00,41.0,31.0,29.99,SW,218,10.0,17.0,67,0.00,,,0.00,,2014-01-11 00:02:00,
2014-01-10 17:22:00,40.0,29.0,29.98,SW,236,12.0,23.0,65,0.00,,,0.00,,2014-01-11 00:22:00,
2014-01-10 17:52:00,39.0,29.0,30.00,SW,220,12.0,26.0,68,0.00,,,0.00,,2014-01-11 00:52:00,
2014-01-10 18:22:00,39.0,29.0,30.03,SW,215,6.0,20.0,68,0.00,,,0.00,,2014-01-11 01:22:00,
2014-01-10 18:42:00,39.0,29.0,30.04,WSW,239,7.0,17.0,67,0.00,,,0.00,,2014-01-11 01:42:00,
2014-01-10 18:52:00,39.0,29.0,30.06,SSW,211,6.0,22.0,68,0.00,,,0.00,,2014-01-11 01:52:00,
2014-01-10 19:21:00,39.0,30.0,30.06,WSW,241,9.0,21.0,69,0.00,,,0.00,,2014-01-11 02:21:00,
2014-01-10 19:52:00,39.0,30.0,30.08,SW,221,7.0,18.0,70,0.00,,,0.00,,2014-01-11 02:52:00,
2014-01-10 20:22:00,39.0,30.0,30.10,WSW,244,10.0,23.0,71,0.00,,,0.00,,2014-01-11 03:22:00,
2014-01-10 20:43:00,39.0,30.0,30.10,West,264,12.0,22.0,70,0.00,,,0.00,,2014-01-11 03:43:00,
2014-01-10 20:54:00,39.0,30.0,30.09,WSW,237,12.0,20.0,70,0.00,,,0.00,,2014-01-11 03:54:00,
2014-01-10 21:23:00,38.0,30.0,30.11,WSW,251,5.0,18.0,73,0.00,,,0.00,,2014-01-11 04:23:00,
2014-01-10 21:53:00,38.0,30.0,30.11,SW,219,9.0,16.0,72,0.00,,,0.00,,2014-01-11 04:53:00,
2014-01-10 22:22:00,39.0,30.0,30.11,SSW,213,6.0,15.0,71,0.00,,,0.00,,2014-01-11 05:22:00,
2014-01-10 22:53:00,40.0,31.0,30.10,WSW,244,6.0,21.0,69,0.00,,,0.00,,2014-01-11 05:53:00,
2014-01-10 23:22:00,41.0,31.0,30.09,SW,228,7.0,16.0,67,0.00,,,0.00,,2014-01-11 06:22:00,
2014-01-10 23:42:00,41.0,31.0,30.09,WSW,251,6.0,15.0,68,0.00,,,0.00,,2014-01-11 06:42:00,
2014-01-10 23:52:00,41.0,31.0,30.11,SSW,200,5.0,14.0,67,0.00,,,0.00,,2014-01-11 06:52:00,